Tracking 31027 objects as of 19-Jul-2025
HD Live streaming from Space Station
objects crossing your sky now

XJY-7

Track XJY-7 now!
10-day predictions


NORAD ID: 47298
Int'l Code: 2020-102C
Perigee: 387.7 km
Apogee: 395.5 km
Inclination: 97.4 °
Period: 92.2 minutes
Semi major axis: 6762 km
RCS: Unknown
Launch date: December 22, 2020
Source: People's Republic of China (PRC)
Launch site: Wenchang Satellite Launch Center (WSC)
Your satellite tracking list
Your tracking list is empty




NASA's NSSDC Master Catalog

Two Line Element Set (TLE):
1 47298U 20102C   25199.87154974  .00078409  00000-0  92407-3 0  9999
2 47298  97.3761 306.0716 0005810 227.7540 132.3225 15.61104101254929
Source of the keplerian elements: AFSPC